EJA18 KSAN-KSFO

Flight info

Callsign EJA18
Flight time 1h 0m
Altitude 47000
Route PADRZ2 IKAYE RIZIN SPLNT STOKD SERFR SERFR4
Aircraft C750/M-VGDW/C

Departure

Time 2026-04-25 21:07
Airport San Diego International Airport (KSAN)

Arrival

Time 2026-04-25 22:07
Airport San Francisco International Airport (KSFO)
Time Latitude Longitude Altitude Speed Heading
2026-04-25 20:46 32.73119 -117.19060 23 ft 0 kts 116°
2026-04-25 20:58 32.73118 -117.19040 16 ft 7 kts 74°
2026-04-25 20:59 32.73195 -117.19051 22 ft 19 kts 347°
2026-04-25 20:59 32.73264 -117.18972 24 ft 18 kts 109°
2026-04-25 20:59 32.73210 -117.18796 26 ft 29 kts 106°
2026-04-25 20:59 32.73141 -117.18510 22 ft 41 kts 105°
2026-04-25 21:00 32.73069 -117.18206 22 ft 40 kts 104°
2026-04-25 21:00 32.73050 -117.18123 18 ft 17 kts 104°
2026-04-25 21:00 32.73001 -117.17920 18 ft 21 kts 105°
2026-04-25 21:01 32.72947 -117.17709 18 ft 26 kts 89°
2026-04-25 21:01 32.72963 -117.17646 20 ft 0 kts 64°
2026-04-25 21:03 32.72969 -117.17634 16 ft 6 kts 55°
2026-04-25 21:03 32.73021 -117.17614 19 ft 11 kts 328°
2026-04-25 21:04 32.73036 -117.17653 18 ft 0 kts 289°
2026-04-25 21:06 32.73115 -117.17964 15 ft 100 kts 288°
2026-04-25 21:06 32.73188 -117.18274 21 ft 130 kts 285°
2026-04-25 21:07 32.73686 -117.20247 1097 ft 162 kts 285°
2026-04-25 21:07 32.74054 -117.21567 1928 ft 177 kts 288°
2026-04-25 21:07 32.74853 -117.22876 1953 ft 237 kts 313°
2026-04-25 21:07 32.76116 -117.24489 2378 ft 276 kts 307°
2026-04-25 21:08 32.77190 -117.26469 3185 ft 282 kts 298°
2026-04-25 21:08 32.78098 -117.28413 4887 ft 257 kts 299°
2026-04-25 21:08 32.79040 -117.30217 6093 ft 261 kts 301°
2026-04-25 21:08 32.80071 -117.32016 7000 ft 272 kts 305°
2026-04-25 21:09 32.82440 -117.35670 9182 ft 280 kts 302°
2026-04-25 21:09 32.83616 -117.37511 10456 ft 277 kts 301°
2026-04-25 21:09 32.84780 -117.39308 11666 ft 272 kts 300°
2026-04-25 21:10 32.85927 -117.41081 12861 ft 268 kts 298°
2026-04-25 21:10 32.87055 -117.42833 13982 ft 264 kts 297°
2026-04-25 21:10 32.88160 -117.44550 14966 ft 260 kts 297°
2026-04-25 21:10 32.89251 -117.46246 15951 ft 256 kts 297°
2026-04-25 21:11 32.90318 -117.47905 16939 ft 254 kts 297°
2026-04-25 21:11 32.91387 -117.49567 17943 ft 253 kts 297°
2026-04-25 21:11 32.92454 -117.51228 18864 ft 252 kts 297°
2026-04-25 21:11 32.93514 -117.52878 19725 ft 251 kts 297°
2026-04-25 21:12 32.94576 -117.54535 20603 ft 251 kts 297°
2026-04-25 21:12 32.95638 -117.56189 21489 ft 251 kts 296°
2026-04-25 21:12 32.96697 -117.57841 22378 ft 251 kts 296°
2026-04-25 21:12 32.97055 -117.58399 22680 ft 251 kts 296°
2026-04-25 21:13 32.98807 -117.61140 23934 ft 257 kts 296°
2026-04-25 21:13 32.99925 -117.62893 24514 ft 266 kts 296°
2026-04-25 21:13 33.01065 -117.64676 25043 ft 277 kts 296°
2026-04-25 21:13 33.02259 -117.66544 25537 ft 289 kts 296°
2026-04-25 21:14 33.03497 -117.68478 26043 ft 299 kts 296°
2026-04-25 21:14 33.04346 -117.69804 26382 ft 306 kts 296°
2026-04-25 21:14 33.06108 -117.72528 27064 ft 322 kts 299°
2026-04-25 21:14 33.07803 -117.74426 27558 ft 342 kts 309°
2026-04-25 21:15 33.09028 -117.75640 27918 ft 347 kts 309°
2026-04-25 21:15 33.10893 -117.77532 28469 ft 355 kts 308°
2026-04-25 21:15 33.12782 -117.79477 29026 ft 363 kts 308°
2026-04-25 21:15 33.15371 -117.82114 29778 ft 374 kts 309°
2026-04-25 21:16 33.17372 -117.84141 30300 ft 381 kts 309°
2026-04-25 21:16 33.18744 -117.85538 30628 ft 385 kts 309°
2026-04-25 21:16 33.20689 -117.87738 31122 ft 385 kts 304°
2026-04-25 21:16 33.22570 -117.90012 31618 ft 392 kts 304°
2026-04-25 21:17 33.24523 -117.92323 32132 ft 398 kts 304°
2026-04-25 21:17 33.26501 -117.94660 32650 ft 403 kts 304°
2026-04-25 21:17 33.28495 -117.97043 33197 ft 407 kts 303°
2026-04-25 21:17 33.30501 -117.99450 33709 ft 411 kts 303°
2026-04-25 21:18 33.32536 -118.01880 34211 ft 414 kts 303°
2026-04-25 21:18 33.34590 -118.04329 34682 ft 417 kts 303°
2026-04-25 21:18 33.36647 -118.06791 35176 ft 420 kts 303°
2026-04-25 21:18 33.38714 -118.09269 35684 ft 422 kts 303°
2026-04-25 21:19 33.40800 -118.11768 36178 ft 424 kts 304°
2026-04-25 21:19 33.42883 -118.14264 36692 ft 425 kts 304°
2026-04-25 21:19 33.44975 -118.16774 37209 ft 426 kts 304°
2026-04-25 21:19 33.47048 -118.19264 37731 ft 427 kts 304°
2026-04-25 21:20 33.49155 -118.21801 37961 ft 435 kts 304°
2026-04-25 21:20 33.50605 -118.23555 37962 ft 442 kts 304°
2026-04-25 21:20 33.53523 -118.27066 37968 ft 455 kts 304°
2026-04-25 21:20 33.55787 -118.29784 37997 ft 464 kts 304°
2026-04-25 21:21 33.60428 -118.35386 37966 ft 482 kts 305°
2026-04-25 21:21 33.65238 -118.41192 37958 ft 498 kts 305°
2026-04-25 21:22 33.70128 -118.47095 37957 ft 497 kts 305°
2026-04-25 21:22 33.74991 -118.52999 37942 ft 497 kts 305°
2026-04-25 21:23 33.79831 -118.58870 37945 ft 497 kts 305°
2026-04-25 21:23 33.84697 -118.64792 37949 ft 497 kts 305°
2026-04-25 21:24 33.89574 -118.70734 37935 ft 499 kts 305°
2026-04-25 21:24 33.94457 -118.76693 37940 ft 500 kts 306°
2026-04-25 21:25 33.99310 -118.82625 37932 ft 500 kts 306°
2026-04-25 21:25 34.04196 -118.88609 37925 ft 500 kts 305°
2026-04-25 21:26 34.09079 -118.94601 37967 ft 500 kts 306°
2026-04-25 21:26 34.13865 -119.00678 37917 ft 492 kts 301°
2026-04-25 21:27 34.17592 -119.07410 37930 ft 481 kts 293°
2026-04-25 21:27 34.21123 -119.14221 37935 ft 481 kts 294°
2026-04-25 21:28 34.24638 -119.21067 37946 ft 479 kts 293°
2026-04-25 21:28 34.28161 -119.27921 37943 ft 479 kts 294°
2026-04-25 21:29 34.31675 -119.34776 37942 ft 478 kts 294°
2026-04-25 21:29 34.35162 -119.41592 37923 ft 479 kts 294°
2026-04-25 21:30 34.38687 -119.48494 37922 ft 479 kts 294°
2026-04-25 21:30 34.41865 -119.54042 37933 ft 490 kts 302°
2026-04-25 21:31 34.45020 -119.58046 37938 ft 501 kts 307°
2026-04-25 21:31 34.47477 -119.61051 37921 ft 504 kts 307°
2026-04-25 21:31 34.52408 -119.67151 37919 ft 509 kts 306°
2026-04-25 21:32 34.57417 -119.73306 37933 ft 514 kts 307°
2026-04-25 21:32 34.62449 -119.79533 37922 ft 517 kts 307°
2026-04-25 21:33 34.67467 -119.85729 37919 ft 512 kts 307°
2026-04-25 21:33 34.72442 -119.91905 37917 ft 509 kts 307°
2026-04-25 21:34 34.77385 -119.98041 37936 ft 506 kts 307°
2026-04-25 21:34 34.82297 -120.04152 37936 ft 503 kts 307°
2026-04-25 21:35 34.87152 -120.10205 37934 ft 501 kts 307°
2026-04-25 21:35 34.92035 -120.16303 37945 ft 499 kts 307°
2026-04-25 21:36 34.96818 -120.22285 37951 ft 497 kts 307°
2026-04-25 21:36 35.01637 -120.28327 37951 ft 495 kts 307°
2026-04-25 21:37 35.05623 -120.33328 37945 ft 494 kts 307°
2026-04-25 21:37 35.11379 -120.40224 37970 ft 501 kts 311°
2026-04-25 21:38 35.16585 -120.46015 37957 ft 510 kts 311°
2026-04-25 21:38 35.21827 -120.51920 37951 ft 515 kts 311°
2026-04-25 21:39 35.27095 -120.57821 37957 ft 519 kts 311°
2026-04-25 21:39 35.32439 -120.63849 37959 ft 524 kts 311°
2026-04-25 21:40 35.37829 -120.69922 37961 ft 528 kts 311°
2026-04-25 21:40 35.43193 -120.75983 37957 ft 526 kts 311°
2026-04-25 21:41 35.48592 -120.82031 37958 ft 526 kts 314°
2026-04-25 21:41 35.54449 -120.87458 37964 ft 526 kts 317°
2026-04-25 21:42 35.60238 -120.92851 37966 ft 525 kts 317°
2026-04-25 21:42 35.66071 -120.98271 37951 ft 525 kts 318°
2026-04-25 21:43 35.71883 -121.03684 37949 ft 524 kts 317°
2026-04-25 21:43 35.77682 -121.09102 37950 ft 523 kts 318°
2026-04-25 21:44 35.83478 -121.14516 37943 ft 522 kts 317°
2026-04-25 21:45 35.92162 -121.22658 37252 ft 520 kts 318°
2026-04-25 21:45 35.94067 -121.24445 36809 ft 517 kts 318°
2026-04-25 21:45 35.97846 -121.27998 35892 ft 513 kts 317°
2026-04-25 21:45 36.00686 -121.30673 35219 ft 510 kts 317°
2026-04-25 21:46 36.03494 -121.33317 34538 ft 507 kts 317°
2026-04-25 21:46 36.06298 -121.35954 33864 ft 504 kts 317°
2026-04-25 21:46 36.09223 -121.38345 33169 ft 502 kts 323°
2026-04-25 21:46 36.12185 -121.40624 32510 ft 497 kts 323°
2026-04-25 21:47 36.15092 -121.42882 31856 ft 491 kts 323°
2026-04-25 21:47 36.17960 -121.45138 31211 ft 485 kts 323°
2026-04-25 21:47 36.20795 -121.47363 30584 ft 479 kts 323°
2026-04-25 21:47 36.23600 -121.49548 29932 ft 474 kts 323°
2026-04-25 21:48 36.26339 -121.51683 29289 ft 467 kts 324°
2026-04-25 21:48 36.29072 -121.53829 28684 ft 460 kts 324°
2026-04-25 21:48 36.31748 -121.55933 28084 ft 453 kts 325°
2026-04-25 21:48 36.34401 -121.58012 27488 ft 447 kts 325°
2026-04-25 21:49 36.36979 -121.60034 26902 ft 445 kts 325°
2026-04-25 21:49 36.39637 -121.62125 26310 ft 445 kts 325°
2026-04-25 21:49 36.42243 -121.64176 25735 ft 441 kts 326°
2026-04-25 21:49 36.44815 -121.66198 25159 ft 433 kts 326°
2026-04-25 21:50 36.47332 -121.68179 24592 ft 426 kts 326°
2026-04-25 21:50 36.49821 -121.70143 24035 ft 420 kts 326°
2026-04-25 21:50 36.52275 -121.72082 23546 ft 412 kts 326°
2026-04-25 21:50 36.53865 -121.73338 23155 ft 408 kts 326°
2026-04-25 21:51 36.57028 -121.75837 22459 ft 397 kts 326°
2026-04-25 21:51 36.59310 -121.77643 21948 ft 390 kts 326°
2026-04-25 21:51 36.61585 -121.79446 21431 ft 385 kts 326°
2026-04-25 21:51 36.63834 -121.81227 20923 ft 379 kts 327°
2026-04-25 21:52 36.66039 -121.82976 20423 ft 373 kts 326°
2026-04-25 21:52 36.68210 -121.84698 19935 ft 368 kts 327°
2026-04-25 21:52 36.70352 -121.86399 19453 ft 363 kts 326°
2026-04-25 21:52 36.72475 -121.88086 18977 ft 360 kts 326°
2026-04-25 21:53 36.74666 -121.89539 18454 ft 359 kts 340°
2026-04-25 21:53 36.77081 -121.90249 18002 ft 354 kts 348°
2026-04-25 21:53 36.79483 -121.90892 17536 ft 350 kts 348°
2026-04-25 21:53 36.81815 -121.91551 17084 ft 346 kts 347°
2026-04-25 21:54 36.84150 -121.92217 16630 ft 342 kts 347°
2026-04-25 21:54 36.86471 -121.92862 16166 ft 339 kts 348°
2026-04-25 21:54 36.88765 -121.93496 15723 ft 336 kts 348°
2026-04-25 21:54 36.91044 -121.94134 15279 ft 334 kts 347°
2026-04-25 21:55 36.93300 -121.94768 14832 ft 331 kts 348°
2026-04-25 21:55 36.95509 -121.95433 14379 ft 328 kts 344°
2026-04-25 21:55 36.97672 -121.96307 13968 ft 326 kts 343°
2026-04-25 21:55 36.99852 -121.97134 13510 ft 329 kts 343°
2026-04-25 21:56 37.02059 -121.97970 13068 ft 334 kts 343°
2026-04-25 21:56 37.03563 -121.98559 12769 ft 336 kts 342°
2026-04-25 21:56 37.06541 -121.99737 12177 ft 340 kts 342°
2026-04-25 21:56 37.08807 -122.00619 11727 ft 341 kts 342°
2026-04-25 21:57 37.11067 -122.01497 11276 ft 340 kts 341°
2026-04-25 21:57 37.13319 -122.02379 10832 ft 338 kts 341°
2026-04-25 21:57 37.15559 -122.03257 10383 ft 338 kts 341°
2026-04-25 21:57 37.17786 -122.04127 9937 ft 332 kts 341°
2026-04-25 21:58 37.19976 -122.04985 9476 ft 328 kts 341°
2026-04-25 21:58 37.22140 -122.05833 9058 ft 322 kts 341°
2026-04-25 21:58 37.24262 -122.06667 8612 ft 318 kts 341°
2026-04-25 21:58 37.26367 -122.07489 8199 ft 314 kts 341°
2026-04-25 21:59 37.28447 -122.08301 7649 ft 309 kts 340°
2026-04-25 21:59 37.30431 -122.09080 7272 ft 288 kts 340°
2026-04-25 21:59 37.32260 -122.09811 6918 ft 271 kts 340°
2026-04-25 22:00 37.35690 -122.11161 6288 ft 251 kts 341°
2026-04-25 22:00 37.37334 -122.11813 5986 ft 243 kts 341°
2026-04-25 22:00 37.38950 -122.12309 5682 ft 236 kts 344°
2026-04-25 22:00 37.40506 -122.12881 5429 ft 230 kts 341°
2026-04-25 22:01 37.41985 -122.13425 5172 ft 227 kts 343°
2026-04-25 22:01 37.43497 -122.13940 4911 ft 224 kts 343°
2026-04-25 22:01 37.45000 -122.14447 4632 ft 222 kts 343°
2026-04-25 22:01 37.45514 -122.14622 4540 ft 231 kts 343°
2026-04-25 22:02 37.48432 -122.15590 4034 ft 264 kts 343°
2026-04-25 22:02 37.49587 -122.15960 3818 ft 255 kts 343°
2026-04-25 22:02 37.51274 -122.16512 3510 ft 246 kts 342°
2026-04-25 22:02 37.53323 -122.17482 3053 ft 232 kts 321°
2026-04-25 22:03 37.54320 -122.18942 2788 ft 211 kts 298°
2026-04-25 22:03 37.54774 -122.19987 2659 ft 192 kts 294°
2026-04-25 22:03 37.55499 -122.21711 2400 ft 151 kts 294°
2026-04-25 22:03 37.55973 -122.22843 2223 ft 143 kts 292°
2026-04-25 22:04 37.56272 -122.23586 2113 ft 140 kts 292°
2026-04-25 22:04 37.56719 -122.24665 1953 ft 138 kts 294°
2026-04-25 22:04 37.57173 -122.25734 1812 ft 137 kts 294°
2026-04-25 22:04 37.57612 -122.26782 1688 ft 136 kts 295°
2026-04-25 22:05 37.58053 -122.27833 1506 ft 139 kts 295°
2026-04-25 22:05 37.58510 -122.28923 1301 ft 140 kts 295°
2026-04-25 22:05 37.58966 -122.30004 1096 ft 137 kts 295°
2026-04-25 22:05 37.59398 -122.31037 904 ft 131 kts 295°
2026-04-25 22:06 37.59822 -122.32052 716 ft 131 kts 293°
2026-04-25 22:06 37.60237 -122.33039 544 ft 130 kts 292°
2026-04-25 22:06 37.60661 -122.34056 366 ft 131 kts 291°
2026-04-25 22:06 37.61077 -122.35043 202 ft 123 kts 293°
2026-04-25 22:07 37.61467 -122.35982 43 ft 117 kts 292°
2026-04-25 22:07 37.61710 -122.36553 20 ft 104 kts 293°
2026-04-25 22:07 37.62084 -122.37459 12 ft 65 kts 297°
2026-04-25 22:07 37.62115 -122.37721 16 ft 5 kts 228°